Wind_Speed
53 52 49 45 43 41 40 39 38 34 34 36 39 46 53 57 59 59 55 53 51 50 48 47 44 41 42 44 45 45 45 43 40 38 36 35 34 32 31 30 30 29 29 30 27 23 22 22 22 23 23 23 21 20 20 19 20 21 21 21 20 20 19 18 18 19 18 18 17 17 17 16 16 16 17 17 18 18 19 19 19 19 20 20 21 21
53 52 48 44 42 41 40 39 38 36 35 36 37 43 52 58 60 59 56 52 52 50 47 46 45 43 43 45 46 47 46 43 39 37 35 35 35 34 33 31 30 30 31 30 27 24 23 22 22 23 23 23 22 21 21 21 22 23 22 22 22 21 20 20 20 20 20 20 19 18 18 17 18 18 19 19 20 20 21 21 21 21 22 23 23 24
54 51 47 45 44 43 42 42 40 38 36 36 37 40 48 56 61 61 58 55 55 53 49 47 47 45 44 46 47 48 46 42 39 38 37 36 37 36 34 32 32 32 31 30 28 26 24 23 23 23 24 24 23 23 22 22 23 23 22 22 23 22 21 22 22 22 22 22 21 19 19 19 19 20 20 21 22 23 23 23 23 23 24 25 26 27
52 47 46 47 47 45 44 43 41 39 37 36 36 37 43 54 62 63 60 57 56 54 51 49 48 46 45 47 48 48 45 41 40 40 39 38 37 36 34 34 34 32 31 30 29 28 26 24 23 23 24 25 24 23 23 23 23 23 23 24 25 24 24 24 24 24 25 24 22 21 21 21 20 21 22 23 24 26 26 26 26 26 26 26 28 29
51 45 44 47 47 47 46 44 42 41 38 37 36 35 40 52 61 63 60 56 54 54 52 49 50 48 46 48 48 46 44 42 41 42 40 38 36 36 36 35 34 32 31 31 31 30 28 25 24 24 25 26 24 23 24 24 24 24 24 26 26 26 25 25 25 26 26 25 23 23 23 22 22 22 23 24 26 28 28 28 28 28 28 29 30 31
51 47 46 46 47 47 46 44 42 41 39 37 35 35 40 51 61 63 60 56 53 54 52 50 52 51 47 47 47 45 45 43 42 43 40 37 36 37 37 35 33 33 32 32 32 31 30 27 26 25 25 25 24 24 25 26 26 26 26 26 27 26 26 26 26 27 27 26 25 25 24 24 24 24 25 27 29 29 29 30 30 30 31 31 32 33
51 49 47 47 48 47 46 44 41 41 40 37 34 35 41 52 61 63 60 56 53 53 51 49 52 52 48 47 46 45 46 44 43 43 39 37 37 37 36 35 34 34 33 32 32 32 31 29 27 26 25 25 26 26 27 28 27 27 26 27 27 27 27 27 28 29 29 28 27 27 26 26 26 26 27 30 31 30 31 32 32 33 33 33 34 35
51 50 48 48 49 47 45 43 41 41 40 37 35 36 43 52 61 62 59 55 53 52 50 49 52 54 51 48 47 46 46 44 44 42 39 37 38 37 35 35 34 34 34 34 33 33 32 30 29 28 26 26 27 28 28 28 28 27 27 28 28 28 29 29 30 30 30 30 29 29 29 29 28 29 31 32 32 32 33 34 34 35 36 35 36 37
49 50 48 48 49 47 44 42 41 42 40 38 37 39 44 53 60 61 57 54 53 51 51 52 52 55 54 49 47 47 46 44 44 42 39 38 38 37 35 36 35 35 35 34 33 33 33 31 30 29 28 28 28 28 28 28 28 29 29 29 29 29 29 30 31 31 32 31 31 31 31 31 31 32 33 35 35 34 35 36 37 38 38 38 38 39
45 46 46 46 47 45 43 42 42 41 40 38 39 41 45 52 59 60 58 55 54 54 54 53 53 55 56 51 47 49 46 43 42 41 40 38 37 37 35 35 36 35 34 34 33 33 33 32 31 31 30 29 28 28 29 29 29 29 30 30 30 30 31 31 32 32 32 32 32 32 32 32 33 34 35 36 36 36 37 38 39 40 40 40 40 40
42 42 44 46 46 43 41 41 41 41 40 39 40 42 45 51 57 60 59 55 54 57 56 54 53 55 57 53 48 48 46 41 40 40 39 38 37 37 36 35 35 34 34 33 33 33 33 32 32 31 31 30 30 30 29 29 30 30 31 31 32 32 33 33 33 33 33 34 34 33 33 34 35 35 36 37 37 38 39 40 41 42 42 42 41 42
44 43 45 46 45 44 42 42 41 40 41 40 42 44 47 51 56 59 60 57 56 60 58 55 54 56 59 55 48 46 44 41 40 39 38 37 36 37 36 35 34 34 34 33 33 32 32 31 31 31 31 31 31 31 30 31 31 31 31 32 33 33 34 35 35 35 35 36 36 35 36 36 36 37 37 38 38 39 40 41 42 43 43 43 43 43
47 46 47 48 46 45 43 43 42 42 42 42 44 46 49 54 56 58 61 60 61 62 58 55 55 58 62 56 47 44 43 41 41 39 38 37 36 35 35 34 34 34 33 32 32 31 30 30 31 31 31 31 31 31 31 32 32 32 32 33 33 34 35 36 37 37 37 38 38 38 38 38 38 38 38 39 40 40 42 42 43 43 44 45 45 45
50 49 48 49 48 46 45 45 45 45 45 46 46 48 52 55 57 59 61 62 63 61 57 54 55 59 62 55 46 43 41 40 42 40 37 36 35 34 34 34 34 34 33 32 31 30 30 30 30 30 30 30 31 31 32 32 32 33 33 34 34 35 36 37 37 38 39 39 39 40 40 40 40 40 40 41 42 43 44 44 44 45 46 47 47 47
49 50 49 50 51 49 47 45 44 44 44 46 47 48 52 54 56 57 58 59 59 56 52 51 54 59 61 55 45 41 41 41 41 39 37 36 36 35 34 33 33 33 33 32 31 30 30 29 29 29 29 29 30 30 31 32 32 33 34 34 35 36 37 38 38 39 40 40 41 41 42 42 42 43 43 44 44 45 46 46 46 47 48 48 49 49
44 44 45 48 50 49 47 45 44 44 43 45 46 48 50 51 52 53 53 54 53 51 50 52 56 59 58 53 44 40 42 43 41 39 37 36 36 35 34 33 33 33 33 32 31 30 30 30 29 29 29 29 29 29 30 30 31 32 33 34 35 36 37 38 39 40 41 42 42 43 43 44 44 45 45 46 47 47 48 48 49 50 50 50 51 51
44 43 43 45 46 46 45 44 44 45 46 46 47 49 48 47 48 50 51 52 52 53 55 57 58 58 56 52 45 41 42 43 42 41 38 37 36 35 35 34 33 33 33 32 32 31 31 30 30 30 29 29 29 29 29 29 30 31 32 33 34 36 37 38 40 41 42 42 43 44 44 45 46 46 47 48 48 49 50 50 51 52 52 52 52 53
45 44 44 44 45 44 44 44 44 45 46 46 47 47 46 45 47 49 51 53 54 56 59 59 59 57 55 53 48 43 41 40 41 42 40 38 37 36 36 35 34 34 33 33 33 32 32 32 31 30 30 29 29 29 29 29 29 29 30 31 33 34 36 38 39 40 41 42 43 43 44 45 46 47 48 49 50 50 51 52 52 53 54 54 54 55
42 42 42 43 44 42 42 43 45 45 46 46 46 44 43 44 47 49 52 54 55 57 59 59 58 57 56 53 48 43 40 38 39 41 41 40 39 39 38 37 35 35 34 34 34 33 33 32 32 31 31 30 30 29 30 30 31 31 32 33 34 35 36 37 38 39 40 40 41 42 44 45 46 47 49 49 50 51 52 52 53 54 54 55 55 55
42 42 42 41 41 41 42 43 44 44 46 47 47 45 45 45 45 47 49 51 53 54 57 57 57 58 56 50 45 41 39 37 38 39 41 41 40 40 40 39 38 36 35 35 34 34 33 33 32 32 32 32 32 32 33 33 34 34 35 35 36 36 37 38 38 39 40 41 42 43 44 45 47 48 49 49 50 51 51 52 52 53 53 54 54 54
43 44 43 42 41 41 42 42 42 41 42 43 44 44 44 44 45 45 46 48 50 51 54 55 57 57 54 47 43 41 38 35 36 37 39 41 40 39 38 38 38 38 37 36 36 35 35 35 35 34 35 35 35 36 37 37 37 37 37 38 38 38 39 40 41 41 42 43 44 45 46 47 48 48 49 50 51 51 52 52 52 53 53 53 53 53
44 44 44 44 43 42 41 41 40 40 39 39 39 38 37 38 39 41 43 45 47 49 51 53 55 54 51 47 43 42 40 37 36 36 37 39 40 40 38 37 38 38 38 38 38 38 38 38 38 39 39 40 40 41 41 41 40 40 40 41 41 41 42 42 43 44 44 45 46 46 47 48 48 49 49 50 51 51 52 52 52 52 53 53 52 52
46 45 46 45 43 42 41 40 40 40 38 38 38 36 36 37 36 37 39 40 42 44 45 48 51 50 46 46 45 43 42 41 38 37 37 38 39 40 40 39 39 39 39 40 41 42 42 42 42 43 43 44 44 44 45 44 44 44 44 44 44 45 45 45 46 46 47 47 47 47 48 48 48 48 49 49 49 49 50 50 50 51 51 51 50 50
47 47 48 46 44 43 42 41 40 40 39 39 37 36 37 39 38 38 37 36 37 39 40 44 48 46 44 44 45 46 44 42 40 38 39 39 38 39 40 41 41 41 42 43 44 45 45 45 45 46 46 45 45 45 45 45 45 45 46 46 46 47 47 47 48 48 49 49 49 49 49 49 49 49 49 49 49 49 49 49 49 48 48 48 48 48
48 49 50 49 48 47 46 46 44 43 42 41 40 40 41 40 41 41 39 38 38 37 39 42 43 42 40 39 41 45 45 44 42 41 41 41 41 41 42 42 43 44 45 45 46 46 46 46 46 46 46 45 44 44 44 44 44 44 45 45 46 47 47 48 48 49 49 50 50 51 51 51 51 51 51 51 50 50 49 48 48 47 47 47 47 47
47 49 50 51 51 50 49 47 44 44 46 46 44 44 44 43 42 40 39 39 37 33 36 37 34 31 30 30 34 38 40 43 44 44 44 43 43 44 44 45 46 46 46 45 45 45 45 45 45 44 44 44 44 44 44 44 45 45 46 46 47 47 47 48 48 49 49 49 50 50 50 50 50 50 50 50 49 49 48 48 47 47 47 47 47 48
47 48 48 48 47 45 43 40 38 38 41 40 38 38 39 40 40 39 39 35 29 27 29 29 28 27 24 25 28 29 32 37 38 40 41 41 43 45 46 47 48 48 47 46 45 45 45 45 45 44 44 45 45 45 45 46 46 46 46 47 47 48 48 48 48 48 48 48 49 49 49 49 48 48 48 48 48 47 47 47 47 47 47 47 48 48
48 48 47 47 46 44 41 40 38 37 36 34 34 36 37 38 39 39 37 30 25 27 28 25 26 28 24 23 25 25 27 31 33 35 38 40 43 45 46 48 48 47 47 46 45 45 45 45 45 44 44 45 45 45 45 45 45 46 46 47 47 48 48 48 48 48 48 48 48 48 48 48 47 47 46 46 46 46 46 46 47 47 48 48 49 49
49 48 46 46 47 46 45 44 43 41 40 39 39 39 39 40 41 39 35 31 31 33 30 26 26 28 27 25 26 27 29 31 34 37 39 42 43 43 43 43 43 44 45 44 44 44 44 44 44 43 44 44 44 44 44 44 45 45 46 46 47 47 48 48 48 48 48 48 48 47 47 47 46 46 45 45 46 46 46 47 48 48 49 50 50 51
51 50 48 47 47 47 47 47 46 45 45 45 44 43 42 42 42 40 38 37 39 38 35 33 33 33 33 32 30 31 31 31 33 35 36 36 34 34 34 35 36 37 39 40 42 42 42 42 42 43 43 43 43 43 43 44 44 45 45 46 46 46 47 47 47 47 47 47 47 47 47 47 46 46 46 47 47 48 48 49 50 50 51 52 53 53
53 53 52 50 50 50 50 50 49 49 48 47 47 46 45 44 44 44 44 45 46 44 42 42 40 37 36 34 31 31 30 29 31 31 30 30 30 31 33 33 33 33 33 35 37 38 39 40 41 41 42 42 43 43 44 44 44 44 44 44 44 45 45 46 46 47 48 48 48 48 49 49 49 49 50 50 51 51 51 52 52 53 54 55 55 56
56 56 55 53 53 52 51 51 52 52 51 52 52 50 49 49 48 48 48 49 48 44 42 43 39 34 31 30 29 30 31 31 32 32 32 34 35 37 37 37 36 35 34 34 35 36 37 37 38 39 40 41 42 42 43 43 43 43 43 43 43 44 45 46 46 47 48 49 49 50 51 51 52 52 53 53 54 54 55 55 56 56 57 57 58 58
56 56 54 53 53 52 52 53 53 53 55 56 53 50 50 51 50 50 50 48 45 42 41 39 35 31 30 30 31 33 36 36 35 36 38 40 40 41 41 41 40 39 38 38 38 39 39 38 38 38 39 41 42 43 43 43 43 43 43 44 45 45 46 47 48 49 50 51 51 52 53 53 54 54 55 55 56 56 57 57 58 58 59 60 60 61
52 52 52 51 50 51 52 52 52 55 57 55 50 48 50 51 50 51 49 45 43 43 42 38 36 36 37 38 38 38 39 40 40 40 41 43 44 44 44 44 43 42 42 42 41 42 42 40 39 40 41 42 43 45 45 45 45 45 45 47 48 48 49 49 50 51 52 52 53 54 54 55 55 56 56 57 58 58 59 59 60 60 61 61 62 62
49 51 51 51 51 52 53 52 55 58 57 51 48 49 52 52 51 51 49 48 48 48 46 44 43 43 43 44 43 41 41 43 44 44 44 45 46 46 46 45 45 45 44 44 43 44 44 43 43 43 43 44 46 47 47 47 47 47 48 49 50 51 51 52 52 53 54 54 55 55 56 57 57 58 59 59 60 60 61 62 62 63 63 63 64 64
53 53 54 54 55 56 56 58 60 58 54 52 52 52 52 53 53 53 53 52 52 51 50 48 44 44 46 46 45 44 44 46 48 48 47 47 48 47 47 47 47 47 46 46 46 46 47 47 47 46 46 47 47 48 49 49 49 50 50 50 51 52 53 54 55 56 57 58 58 59 60 60 61 61 62 62 63 63 63 64 64 64 65 65 65 65
55 56 56 56 57 58 59 60 59 58 56 55 53 52 51 52 52 53 54 53 51 51 50 47 45 46 48 48 48 49 49 50 51 51 49 50 49 48 47 48 48 49 49 49 49 49 49 49 48 47 47 48 48 49 50 51 51 52 52 52 52 53 54 55 56 57 59 60 60 61 62 62 63 63 64 64 64 65 65 65 65 65 65 65 65 65
52 54 54 55 56 58 58 58 58 60 58 54 51 51 52 52 51 52 54 54 50 50 51 49 48 49 49 50 51 51 51 52 52 49 47 48 48 47 48 49 49 49 49 49 49 48 49 49 48 47 48 48 48 49 49 50 51 52 52 52 53 54 54 55 56 57 58 59 60 61 62 62 63 63 64 64 65 65 65 65 65 65 65 66 66 66
48 49 50 52 54 55 56 57 59 60 56 51 50 51 52 52 50 51 54 52 48 48 51 50 49 49 49 49 49 49 50 52 49 45 44 45 46 48 49 49 49 49 48 48 48 48 48 49 49 49 49 49 49 49 50 50 51 51 52 52 53 54 54 55 56 57 58 59 60 61 61 62 62 63 63 64 64 64 65 64 65 65 65 65 66 66
48 48 49 51 52 53 54 55 57 57 55 52 52 51 51 50 48 50 54 51 47 46 47 47 46 46 44 44 45 47 49 50 47 46 46 48 49 50 49 48 48 48 48 48 48 49 49 50 50 51 51 51 52 52 52 53 53 53 54 54 55 55 56 57 57 58 58 59 60 60 61 61 62 62 63 63 63 63 63 63 63 64 64 64 65 65
49 48 49 50 50 51 52 53 55 56 54 53 53 52 49 47 48 51 52 49 46 44 41 40 41 41 42 44 46 47 48 48 48 49 50 51 51 50 50 49 49 49 49 49 49 49 50 50 50 51 51 52 53 53 54 54 54 55 55 56 56 57 58 58 59 59 60 60 60 61 61 62 62 62 62 62 62 62 62 62 63 63 63 64 65 66
50 50 51 51 51 52 52 53 55 56 54 53 55 55 54 52 53 52 47 43 43 42 39 40 41 42 44 47 48 48 48 48 49 50 51 51 51 51 51 51 50 50 50 49 49 49 50 50 51 52 52 53 53 53 53 54 54 55 56 56 57 58 59 59 60 61 61 62 62 62 62 62 62 62 62 62 62 62 62 62 63 64 65 65 66 67
52 51 52 52 53 53 54 55 57 57 55 54 56 58 57 53 49 45 42 42 43 43 43 44 46 47 48 49 49 50 50 50 50 50 50 51 51 51 52 51 50 50 50 50 51 51 52 53 53 53 53 52 52 52 53 53 54 55 56 57 58 59 59 60 61 61 62 62 63 63 64 64 64 64 63 63 63 64 64 65 65 65 66 66 66 67
54 54 54 55 55 57 57 58 58 55 52 51 52 52 52 48 45 43 44 45 46 47 48 49 50 51 51 50 51 51 51 50 51 51 51 51 51 51 52 51 51 51 51 52 53 54 54 54 53 52 52 51 51 51 52 52 54 55 56 57 58 59 60 61 61 62 62 63 63 64 65 65 65 65 65 66 66 66 66 66 65 65 65 65 65 65
57 56 56 56 56 57 56 55 54 52 52 52 52 51 51 49 49 49 48 47 48 50 51 52 53 54 53 52 51 51 51 51 51 51 51 51 52 52 53 53 54 54 54 54 54 53 53 52 51 51 51 51 51 51 52 53 54 55 56 57 58 59 60 61 61 62 63 64 64 65 65 65 65 65 65 65 65 65 65 65 65 65 64 64 63 63
56 55 54 54 55 55 56 55 54 55 56 57 56 56 55 53 52 51 51 51 52 52 53 53 54 54 54 53 52 51 52 52 51 52 52 53 53 54 54 54 54 54 53 52 52 51 51 50 50 51 51 51 51 51 52 53 54 55 56 57 58 59 60 61 61 62 63 63 64 64 64 63 63 63 63 63 64 64 64 64 64 64 63 62 62 63
57 56 56 56 57 57 58 58 57 57 57 57 57 57 57 55 54 53 53 53 53 53 53 53 53 54 54 55 54 54 53 53 53 54 54 54 54 54 54 53 52 51 51 51 50 49 49 49 50 50 50 51 52 52 53 54 54 55 56 57 58 58 59 60 60 61 61 61 61 61 61 61 61 62 62 63 64 64 64 64 63 62 62 62 63 64
60 59 59 60 60 61 60 59 57 57 57 57 58 58 58 57 56 54 54 54 53 53 54 54 55 56 57 57 57 57 56 56 55 55 55 55 54 53 52 51 50 49 50 50 50 50 50 50 50 51 51 52 52 52 53 54 54 55 55 56 57 58 58 58 58 59 59 59 59 60 61 61 62 63 63 64 64 64 63 63 63 63 63 64 65 66
62 61 61 61 61 62 62 61 60 60 60 59 59 59 59 58 56 55 55 55 55 55 56 57 58 59 59 60 60 59 59 58 57 56 56 55 54 52 51 49 49 50 50 50 50 50 50 50 51 52 52 52 53 53 53 54 54 55 55 55 56 57 57 57 58 58 59 60 60 61 62 62 63 63 63 64 64 63 63 63 64 64 65 65 66 66
64 63 62 63 64 64 63 60 59 59 59 58 57 58 58 58 57 57 58 59 59 59 59 60 61 61 62 62 62 61 60 59 58 58 57 56 55 53 52 51 50 51 51 50 51 51 51 52 52 53 53 54 54 54 54 55 55 55 55 55 56 57 57 58 59 59 60 60 61 62 62 63 63 64 64 64 64 64 64 64 64 64 64 65 65 66
64 63 62 62 62 60 57 56 55 55 55 55 55 57 58 59 59 60 61 62 63 64 64 64 64 64 64 64 63 63 62 61 61 60 58 57 56 54 54 53 53 52 51 51 50 50 51 51 52 53 53 54 54 55 55 55 55 55 55 55 56 57 58 59 59 60 61 62 63 63 64 64 64 64 64 64 64 63 63 63 63 63 64 65 66 67
Wind_Direction
234 234 232 233 235 235 237 236 236 238 238 236 234 233 230 224 221 217 215 217 220 222 221 222 221 218 220 224 226 227 225 225 226 226 228 231 232 231 230 229 231 233 235 238 240 241 242 242 242 242 241 241 237 233 232 233 235 234 230 229 228 229 230 232 233 235 236 238 240 243 248 253 256 259 261 265 268 271 274 276 279 283 286 289 290 291
235 233 232 233 233 232 235 235 236 237 236 236 236 234 230 225 221 217 215 217 221 223 223 223 222 218 220 225 226 228 228 226 227 229 228 230 233 233 231 231 232 233 235 238 239 240 241 243 243 242 241 241 239 236 232 229 231 233 232 231 230 230 230 231 233 236 238 240 241 244 249 254 257 261 265 268 271 274 277 279 282 285 288 291 292 293
234 233 231 232 231 230 231 231 233 234 233 235 237 236 233 227 221 218 216 216 219 222 222 223 223 219 220 224 226 229 229 227 228 230 230 230 232 234 233 232 233 233 235 237 238 238 238 241 243 243 242 241 239 237 235 232 232 233 234 235 235 234 232 232 233 236 238 241 244 247 251 254 258 263 268 272 275 277 279 281 283 286 288 291 293 294
232 233 234 231 227 226 227 227 229 231 231 232 234 237 236 229 222 219 216 216 219 221 222 223 224 220 219 224 227 229 229 228 229 230 231 230 231 234 233 232 233 234 236 237 237 237 236 238 241 242 243 242 239 238 237 236 235 234 233 235 237 236 234 235 236 238 241 244 247 249 252 256 260 264 269 273 277 279 281 283 285 286 288 290 292 294
229 231 236 233 226 224 225 225 227 230 232 232 231 234 234 228 223 219 216 216 219 222 223 224 225 221 219 224 227 230 230 228 229 231 232 233 233 234 235 234 234 235 236 237 237 238 237 235 237 239 241 242 241 238 238 238 237 236 234 234 237 238 238 239 241 243 245 247 248 250 253 257 259 262 267 272 274 278 281 283 285 287 288 289 291 293
228 230 235 232 228 227 226 225 228 230 232 232 232 233 232 226 221 219 216 216 218 221 223 224 226 223 220 225 227 229 231 228 229 232 233 235 234 234 235 236 235 235 235 236 237 238 238 236 236 237 240 243 243 240 239 239 239 238 237 237 239 240 242 242 244 246 248 250 251 253 255 257 259 262 267 270 272 276 280 282 284 286 287 289 291 292
230 232 234 231 228 229 227 226 228 230 233 233 233 233 232 225 220 218 217 216 218 221 223 225 228 225 221 225 228 229 232 230 229 232 232 234 235 234 235 236 236 236 236 236 237 239 239 238 238 238 238 240 241 240 238 239 240 240 240 241 242 242 243 244 245 248 250 252 254 256 257 258 261 264 267 269 272 276 279 281 283 285 286 288 290 291
230 233 235 232 229 229 228 227 228 230 233 233 233 233 231 226 221 219 218 218 219 220 223 224 228 228 222 222 228 229 231 231 230 231 231 232 235 235 234 235 235 236 236 236 237 238 239 239 238 239 238 238 239 240 240 241 242 243 243 244 244 244 244 246 248 250 252 253 255 257 258 260 263 265 267 269 272 275 278 280 282 283 285 287 288 289
230 232 235 233 230 230 228 227 229 230 232 233 233 232 230 226 222 220 219 219 220 220 222 223 226 229 224 220 226 229 229 231 231 232 233 231 233 234 234 235 236 237 238 239 239 239 240 240 239 239 239 239 239 241 242 243 243 243 245 246 247 248 248 249 250 252 254 255 256 258 260 262 263 265 266 269 272 275 277 280 281 283 284 286 287 289
230 230 232 232 231 231 229 228 228 229 231 232 232 232 230 227 223 221 220 220 221 221 221 222 224 229 227 219 224 229 229 230 231 232 234 233 232 233 234 236 238 239 240 240 240 240 240 240 240 240 239 240 241 241 242 243 244 245 245 247 249 250 251 252 254 255 257 259 260 261 263 263 264 266 268 271 273 276 278 280 281 283 284 286 287 288
226 227 229 230 228 228 228 229 229 228 230 229 230 233 231 229 225 223 222 221 222 222 221 222 224 229 230 222 222 229 230 230 231 232 234 235 234 234 234 235 237 239 241 240 239 239 240 241 241 241 240 240 241 242 243 244 245 245 246 247 248 249 252 254 256 257 259 261 262 264 265 266 267 269 271 273 276 278 279 280 281 283 284 285 286 287
223 223 227 228 227 227 226 226 227 228 229 227 227 230 230 229 226 223 223 222 223 223 221 223 225 229 231 224 221 228 231 231 231 231 233 235 236 236 235 235 235 237 240 241 241 240 240 241 242 243 242 242 242 243 243 244 246 247 247 247 248 249 251 253 255 257 259 260 262 264 265 267 268 270 272 274 276 277 278 279 280 281 283 284 285 286
225 225 225 225 225 226 226 225 224 224 227 226 227 227 226 227 226 224 224 223 224 225 222 223 225 228 231 228 223 225 229 232 232 231 231 233 237 238 238 236 236 237 239 240 242 242 241 241 243 244 245 245 245 245 244 244 246 247 248 250 250 251 252 253 255 257 259 261 262 264 265 267 268 270 272 273 275 276 276 277 278 280 281 282 284 285
224 224 225 224 224 224 224 225 226 227 227 226 225 225 224 226 227 225 226 225 225 226 224 223 226 228 230 231 227 225 228 231 233 232 232 232 235 238 240 240 238 238 239 240 241 243 243 242 242 243 245 246 246 247 247 247 247 248 249 251 252 253 254 255 257 258 260 261 263 264 266 268 269 270 271 272 273 274 275 277 278 279 280 281 283 284
227 227 226 225 225 224 224 224 225 227 228 226 225 224 225 228 229 228 228 227 226 227 226 225 227 229 231 232 231 228 228 231 233 234 234 234 234 236 239 241 242 242 242 242 242 243 244 244 244 244 244 245 246 248 249 250 251 252 252 253 253 254 255 257 258 260 261 263 264 265 267 268 269 270 270 271 272 273 275 277 278 279 280 281 282 284
230 232 232 229 226 223 220 219 218 218 220 223 225 226 227 230 231 230 230 230 229 230 229 228 229 230 231 233 233 231 229 231 233 234 234 235 236 237 239 241 243 244 244 244 245 246 246 247 247 246 246 246 247 249 250 251 253 254 255 255 256 256 257 257 258 259 261 262 264 265 266 268 269 269 270 271 272 273 275 276 277 278 280 281 282 283
226 227 228 229 229 225 220 217 215 215 216 219 223 226 228 229 228 228 230 230 230 231 231 230 230 231 232 233 233 232 231 231 232 234 234 235 236 238 240 241 243 244 245 245 245 246 248 249 249 249 249 250 250 252 253 254 254 255 255 256 257 257 258 259 259 260 261 262 264 265 266 267 268 269 270 271 272 273 275 276 277 278 279 281 282 283
225 225 224 224 224 223 221 219 216 217 220 221 224 226 226 226 228 228 229 230 230 232 232 231 231 231 231 233 233 233 233 232 233 235 236 236 237 238 240 241 243 244 245 246 246 247 248 249 251 251 252 253 253 254 255 257 258 258 259 259 259 259 259 260 261 262 263 264 265 267 268 268 269 270 270 271 272 273 274 275 277 278 279 280 281 281
224 226 226 223 220 218 217 217 215 216 219 221 224 226 225 227 230 229 229 231 231 232 233 233 232 231 231 232 233 235 235 234 235 237 238 239 239 239 241 243 244 245 246 247 248 249 250 250 251 253 254 254 255 256 257 259 261 262 262 263 263 263 263 264 265 266 267 268 269 269 270 270 270 271 271 272 272 273 274 275 276 278 278 279 280 280
221 223 225 225 223 219 216 217 219 220 221 220 220 221 223 227 231 231 233 235 235 235 236 236 235 234 232 232 234 236 237 236 236 237 239 241 242 242 243 244 245 246 247 248 249 250 251 252 253 254 255 256 257 258 259 261 261 262 263 264 264 266 267 267 268 269 270 271 271 271 271 271 272 272 273 273 273 274 275 275 276 277 277 278 279 280
218 220 221 221 222 220 219 223 225 224 225 225 224 225 225 227 229 230 233 236 237 238 239 240 239 237 235 234 235 238 239 238 238 239 240 242 244 245 245 245 246 247 248 249 249 250 251 253 254 256 258 259 259 260 261 261 262 263 264 265 267 268 268 269 269 269 270 270 270 271 271 272 272 273 273 273 274 274 275 275 276 276 277 278 278 279
215 217 219 218 219 220 220 222 223 222 223 226 229 234 236 238 238 238 239 239 239 239 240 242 244 242 237 235 237 239 241 240 240 240 241 242 245 246 247 247 247 248 249 250 251 252 253 254 255 256 258 259 260 261 263 264 265 267 268 269 269 269 269 269 268 268 269 269 270 270 271 271 272 272 272 273 273 274 274 275 275 276 276 276 277 278
214 215 218 218 217 218 218 218 219 220 221 222 225 228 232 236 239 242 244 245 245 246 246 248 249 246 240 238 238 239 241 241 241 242 243 244 245 247 249 250 251 251 252 252 253 254 256 257 258 258 259 260 261 263 265 266 268 269 270 271 271 271 271 270 270 270 270 270 271 271 272 273 273 274 274 274 274 275 275 275 275 275 275 276 276 277
215 215 217 217 216 216 216 216 216 218 220 222 224 224 225 227 229 234 238 241 245 246 246 248 248 244 239 237 237 239 240 242 244 245 246 247 248 249 250 252 253 254 254 255 255 256 257 259 260 261 262 263 264 265 267 268 269 270 271 271 271 271 271 271 270 270 271 271 272 273 274 274 275 275 276 276 277 277 276 276 276 276 276 276 277 277
218 216 215 215 215 214 213 212 213 216 219 222 221 221 223 224 225 228 231 234 237 236 237 241 244 245 244 241 240 241 242 244 246 248 249 250 251 251 251 251 252 253 255 256 257 258 259 260 261 263 264 265 266 267 268 268 269 269 270 270 270 270 270 270 270 270 271 271 272 273 273 274 274 275 275 276 276 276 276 276 276 276 276 277 277 278
221 221 219 218 217 215 215 217 220 222 221 221 220 220 222 225 228 230 233 236 237 235 238 242 249 255 254 248 244 242 242 244 245 247 249 249 250 250 249 250 250 251 252 254 255 257 259 260 261 263 264 266 267 267 268 269 269 269 269 269 269 270 270 270 270 271 271 271 271 272 272 272 272 273 273 274 274 275 275 275 276 277 277 278 278 279
222 224 223 224 225 225 226 229 231 229 227 228 229 228 228 229 232 233 235 238 239 239 243 246 251 254 246 238 238 236 236 241 242 244 247 248 248 249 248 249 250 251 252 253 254 256 257 259 260 261 263 264 265 266 267 268 268 269 269 270 270 271 271 271 271 271 271 271 271 271 271 271 272 272 272 273 273 273 274 275 276 277 278 278 279 280
222 224 223 224 226 227 229 229 230 231 233 236 237 235 233 233 233 233 234 238 240 239 241 243 244 247 241 233 236 236 235 239 242 243 245 246 247 248 248 250 251 253 253 254 255 255 256 257 258 259 261 262 263 264 265 267 268 269 270 270 271 271 271 271 270 270 270 270 271 271 271 271 272 272 272 272 273 273 274 275 275 276 277 278 279 280
220 223 223 224 225 225 225 225 225 227 228 230 231 231 231 232 233 234 236 239 237 234 237 241 240 243 244 238 237 241 240 240 242 243 244 245 247 250 253 255 256 256 256 256 256 257 257 258 259 260 261 262 263 264 265 266 267 268 269 269 269 269 269 269 269 269 269 270 270 270 271 272 272 272 272 273 273 273 274 275 276 277 278 279 280 280
220 221 221 222 224 225 225 226 225 224 224 226 226 226 227 228 230 232 233 236 238 235 237 240 235 233 240 241 239 243 244 241 242 244 246 249 253 255 257 257 258 258 258 258 258 259 260 261 262 262 263 264 265 266 266 267 267 267 268 268 268 269 269 269 269 269 269 270 270 270 271 271 271 272 272 272 273 274 275 276 277 278 279 280 280 281
221 222 221 220 221 222 224 225 226 225 225 225 225 224 225 225 226 228 227 230 234 232 233 237 235 230 235 240 243 247 247 245 246 249 252 255 256 257 257 257 257 258 258 258 258 259 259 260 261 262 263 264 265 266 266 266 267 267 268 268 269 269 269 269 269 268 268 268 269 269 269 270 271 272 272 273 275 276 277 278 278 279 280 281 281 282
221 223 222 220 220 221 222 224 225 225 225 226 225 224 224 225 226 228 228 230 233 234 236 240 240 238 239 243 248 252 252 250 251 253 255 255 254 254 255 255 256 256 257 257 258 257 257 258 260 261 262 262 263 263 264 265 266 267 268 268 269 269 269 268 268 268 268 268 268 269 269 270 272 273 274 275 276 277 278 279 280 281 281 282 283 284
223 225 225 224 224 223 223 225 226 226 227 226 226 226 227 229 230 232 233 234 237 241 243 244 247 250 250 248 245 246 249 251 251 251 252 252 252 252 253 255 256 257 258 258 258 257 257 258 258 259 260 260 261 261 261 262 263 265 266 266 266 266 266 266 266 267 268 268 269 270 270 271 272 273 274 275 276 277 278 279 280 281 282 283 284 285
229 229 229 229 228 228 228 229 230 231 230 228 227 229 231 233 235 237 239 242 244 246 248 249 250 250 249 248 245 244 246 249 250 250 251 252 254 255 256 257 259 260 260 260 260 260 261 261 260 259 259 260 261 261 262 262 262 263 263 264 264 264 265 266 267 267 268 269 270 271 271 272 273 274 275 276 277 278 279 280 281 282 283 284 285 286
229 230 231 231 231 230 230 231 233 234 232 230 229 230 232 235 237 240 241 243 244 245 245 245 244 244 247 250 251 250 249 250 251 251 251 253 255 257 259 260 262 263 263 263 263 263 264 263 262 261 260 260 261 262 263 263 263 263 263 264 265 266 267 267 268 269 270 271 272 273 273 274 275 276 277 278 279 280 281 282 283 283 284 285 286 286
222 224 226 228 229 230 230 231 232 233 233 232 232 232 233 235 237 239 240 241 242 244 245 244 244 247 251 253 254 254 253 252 252 252 252 254 255 258 260 262 264 265 266 267 267 266 265 264 263 263 263 263 263 264 265 265 266 266 266 267 268 268 269 269 270 270 272 273 274 275 276 277 278 279 280 280 281 282 282 283 283 284 285 286 286 286
220 221 222 225 227 229 230 232 234 235 235 234 234 234 235 237 239 242 244 244 244 246 248 248 248 250 253 254 254 254 253 253 253 253 256 258 259 261 263 264 265 266 267 267 268 267 267 267 267 267 266 266 267 267 268 269 270 271 271 271 271 271 271 271 272 273 273 274 275 276 277 278 279 279 280 281 281 282 282 283 284 284 285 286 286 286
221 223 224 226 228 230 232 234 235 237 236 233 233 235 237 239 240 243 246 245 243 245 247 247 247 249 251 252 253 254 255 256 254 254 260 265 265 264 263 263 263 264 265 266 267 268 270 271 271 272 271 272 272 272 273 273 273 274 274 274 274 273 273 273 274 274 274 275 276 277 277 278 279 279 280 281 281 282 283 283 284 285 285 286 286 286
221 223 225 227 229 231 233 235 237 238 237 236 237 239 242 244 243 245 248 245 241 243 247 248 249 250 251 253 255 256 258 257 255 255 260 264 264 262 261 261 262 264 265 267 269 270 272 273 275 276 277 278 278 277 277 277 276 277 277 276 276 276 275 275 275 275 275 276 276 277 278 278 279 280 280 281 282 282 283 284 284 285 285 285 286 286
221 222 224 226 229 231 233 235 238 239 238 238 239 241 244 246 245 245 246 245 242 244 247 250 251 252 253 254 255 255 256 256 256 256 258 259 260 261 262 263 264 266 267 269 270 272 273 274 276 277 278 278 278 279 279 279 279 279 279 279 280 280 279 279 278 278 278 278 278 278 279 279 280 280 281 282 282 283 283 284 284 285 285 286 286 287
226 227 228 230 232 234 235 237 239 239 238 239 241 242 243 244 243 244 245 247 249 249 249 251 253 253 253 253 252 253 254 255 254 254 256 258 260 263 264 265 266 268 269 270 271 272 273 274 275 275 276 277 277 278 279 280 281 281 282 282 283 283 282 282 282 282 281 281 281 281 281 281 282 282 283 283 284 284 285 285 286 286 287 287 288 288
231 232 233 234 235 237 238 240 241 240 239 240 243 244 243 242 243 246 250 254 257 258 256 255 254 252 251 252 252 253 253 254 254 255 256 259 261 263 265 267 268 269 270 271 272 273 274 274 275 276 276 277 278 279 280 281 282 283 283 283 283 283 284 284 284 284 284 284 284 284 285 285 285 285 286 286 286 287 287 288 288 289 289 289 289 289
235 237 237 238 239 240 240 240 240 238 237 239 243 246 247 248 251 255 258 258 258 258 257 255 253 252 251 251 252 253 253 254 255 256 258 260 263 265 267 268 269 271 272 274 275 276 276 277 277 277 278 279 280 281 282 282 283 283 283 284 284 284 285 285 285 285 285 285 285 286 286 286 287 287 288 288 289 289 289 290 289 289 289 288 288 288
236 237 240 241 241 242 242 242 242 243 244 247 250 253 256 258 258 256 254 254 254 253 252 252 252 252 251 250 251 253 255 256 258 259 261 262 264 265 266 268 269 271 272 273 275 276 276 276 277 278 278 279 280 280 280 280 281 281 282 282 283 283 284 284 285 285 286 286 285 285 286 286 286 287 288 288 289 289 289 288 288 288 288 288 288 288
238 241 243 244 245 246 248 249 249 250 252 252 252 253 254 254 253 252 251 251 251 250 250 251 252 253 254 254 255 257 258 259 260 261 262 262 263 264 266 267 269 271 272 274 274 275 275 276 277 277 278 278 278 278 278 278 279 279 280 280 281 282 283 284 284 284 285 285 285 285 285 286 286 286 287 287 287 287 287 287 287 287 288 289 289 289
244 245 246 247 249 250 251 250 250 250 250 250 251 251 250 250 251 252 252 251 250 250 251 252 253 255 257 258 258 259 260 260 260 261 262 263 264 266 268 270 271 273 274 274 274 274 275 275 276 276 276 276 276 276 276 277 277 278 279 280 281 282 282 283 283 283 284 284 284 285 285 285 285 285 285 285 286 286 286 287 288 289 290 290 290 289
245 246 247 248 248 249 249 249 250 250 251 252 254 254 254 254 253 253 254 254 254 254 254 254 255 256 257 258 259 259 259 260 261 262 264 265 267 269 271 272 273 274 274 274 274 274 274 274 274 274 274 274 275 275 276 277 278 279 280 281 282 282 282 282 283 283 283 283 283 284 284 284 284 284 284 285 285 286 287 288 289 289 289 288 288 287
246 247 248 248 249 249 250 250 250 251 251 252 253 254 255 255 255 254 254 255 255 256 256 256 256 257 258 259 260 260 261 262 263 265 267 268 270 270 271 272 272 272 273 274 275 275 275 275 275 275 275 275 275 276 278 279 280 280 281 281 281 282 282 282 282 282 282 282 283 283 283 284 284 284 284 285 286 287 288 288 288 287 286 286 286 287
245 246 246 247 248 248 248 248 249 249 250 250 251 253 254 255 256 256 256 256 256 256 257 258 258 259 260 261 262 263 264 265 266 268 269 271 271 271 271 271 271 272 272 274 276 277 276 276 275 275 275 275 276 277 278 279 279 279 280 280 280 281 281 282 282 282 282 282 283 283 283 284 284 285 286 286 287 287 287 286 285 285 285 286 287 288
243 243 244 244 245 246 246 247 248 250 251 251 253 254 255 256 257 257 258 258 258 258 258 259 260 261 262 263 264 266 267 268 270 271 272 272 272 272 272 272 272 272 273 274 276 276 276 275 274 274 274 274 275 276 276 277 277 277 278 278 279 280 280 280 281 281 282 282 283 283 283 284 284 285 285 285 285 285 284 284 284 285 286 287 288 289
242 242 243 243 245 246 248 248 249 250 251 251 252 253 254 255 256 257 258 259 260 260 261 262 262 263 265 266 267 268 269 270 272 273 273 273 272 272 273 273 273 273 274 274 275 275 274 273 273 273 273 273 274 274 275 275 276 277 277 278 279 279 279 280 281 281 281 282 282 283 283 283 283 283 283 282 282 282 282 283 284 286 287 288 289 289
Height
5777 5780 5784 5790 5794 5797 5798 5800 5802 5804 5805 5805 5807 5809 5811 5814 5817 5820 5823 5825 5827 5829 5831 5834 5838 5842 5844 5844 5845 5846 5849 5851 5853 5857 5860 5862 5864 5866 5867 5868 5869 5870 5870 5870 5872 5874 5874 5874 5875 5876 5877 5877 5878 5879 5879 5880 5880 5881 5881 5882 5883 5884 5884 5885 5885 5885 5886 5886 5886 5886 5886 5886 5886 5885 5885 5885 5885 5884 5884 5884 5884 5883 5882 5882 5881 5880
5773 5777 5784 5788 5790 5793 5794 5796 5798 5800 5801 5803 5804 5805 5807 5810 5814 5817 5820 5823 5824 5826 5829 5831 5834 5839 5841 5840 5842 5843 5845 5849 5852 5855 5858 5859 5861 5862 5864 5865 5866 5867 5867 5868 5870 5871 5872 5872 5873 5874 5875 5875 5876 5876 5877 5878 5878 5878 5879 5880 5881 5882 5883 5883 5883 5883 5884 5884 5884 5884 5884 5884 5884 5883 5883 5883 5882 5882 5882 5881 5881 5881 5880 5879 5878 5878
5770 5776 5782 5784 5786 5788 5790 5792 5794 5796 5797 5799 5801 5802 5804 5807 5810 5813 5816 5818 5819 5821 5825 5827 5830 5835 5837 5837 5838 5839 5842 5847 5851 5852 5854 5856 5857 5859 5862 5863 5863 5864 5865 5866 5868 5868 5869 5870 5870 5872 5872 5873 5874 5874 5875 5876 5876 5877 5878 5878 5879 5880 5881 5881 5881 5882 5882 5881 5882 5882 5882 5882 5882 5881 5881 5880 5880 5879 5879 5879 5879 5878 5878 5877 5876 5875
5769 5776 5779 5779 5781 5783 5785 5787 5790 5791 5793 5795 5797 5799 5801 5803 5806 5809 5812 5815 5816 5817 5821 5823 5826 5830 5833 5833 5834 5836 5840 5845 5847 5848 5850 5852 5854 5857 5859 5860 5860 5861 5863 5864 5865 5866 5867 5867 5868 5869 5870 5870 5871 5872 5872 5873 5874 5875 5876 5876 5876 5877 5878 5878 5879 5879 5879 5880 5880 5881 5880 5880 5880 5880 5879 5878 5877 5876 5876 5876 5876 5876 5875 5874 5873 5872
5768 5772 5773 5775 5777 5779 5781 5783 5785 5788 5789 5791 5794 5795 5797 5800 5803 5806 5809 5811 5813 5815 5818 5820 5822 5826 5830 5830 5832 5835 5838 5842 5844 5844 5847 5849 5852 5854 5855 5857 5858 5859 5860 5861 5862 5862 5864 5865 5866 5867 5867 5867 5868 5869 5870 5870 5871 5872 5873 5873 5873 5874 5875 5876 5876 5876 5877 5878 5878 5878 5879 5879 5878 5878 5877 5876 5875 5874 5874 5873 5873 5873 5872 5871 5870 5869
5765 5767 5767 5771 5774 5776 5778 5780 5783 5785 5787 5788 5791 5792 5794 5796 5800 5803 5805 5807 5809 5811 5814 5817 5817 5822 5827 5828 5830 5833 5834 5838 5840 5841 5844 5847 5849 5851 5852 5854 5855 5856 5857 5857 5858 5859 5860 5862 5863 5864 5865 5865 5866 5867 5867 5867 5868 5869 5870 5870 5871 5872 5873 5873 5873 5873 5874 5875 5875 5876 5876 5876 5876 5876 5875 5873 5872 5872 5871 5871 5870 5870 5869 5868 5867 5866
5761 5763 5764 5767 5770 5773 5775 5777 5780 5782 5784 5786 5788 5790 5791 5793 5796 5798 5801 5804 5806 5808 5811 5814 5814 5818 5824 5826 5827 5829 5830 5834 5837 5839 5843 5845 5845 5848 5849 5851 5852 5852 5854 5855 5855 5856 5858 5859 5860 5861 5863 5863 5863 5863 5863 5864 5865 5866 5867 5868 5869 5870 5870 5870 5870 5870 5871 5872 5872 5872 5873 5873 5873 5873 5872 5870 5870 5870 5869 5868 5867 5866 5866 5865 5864 5863
5758 5759 5761 5764 5767 5769 5772 5775 5777 5778 5780 5783 5786 5787 5788 5790 5792 5794 5797 5800 5802 5805 5808 5810 5811 5813 5818 5822 5824 5825 5827 5831 5834 5837 5840 5841 5842 5844 5846 5847 5848 5849 5850 5851 5852 5854 5855 5856 5857 5859 5860 5860 5860 5860 5860 5862 5862 5863 5864 5865 5866 5866 5867 5868 5868 5868 5868 5869 5869 5869 5870 5870 5870 5870 5869 5867 5867 5867 5866 5865 5864 5863 5862 5862 5861 5859
5755 5755 5758 5761 5763 5766 5770 5772 5773 5774 5777 5780 5782 5783 5784 5787 5789 5791 5794 5796 5799 5801 5802 5805 5807 5807 5812 5819 5820 5821 5824 5827 5831 5834 5836 5838 5839 5840 5842 5844 5844 5845 5846 5848 5849 5851 5852 5853 5854 5855 5856 5857 5858 5858 5859 5859 5860 5860 5861 5861 5862 5863 5864 5865 5865 5865 5865 5865 5866 5866 5866 5867 5867 5866 5865 5864 5864 5864 5863 5861 5860 5859 5858 5858 5857 5856
5748 5750 5754 5755 5759 5765 5768 5768 5768 5771 5774 5777 5778 5780 5782 5783 5785 5787 5789 5792 5794 5795 5798 5802 5804 5803 5806 5815 5817 5817 5821 5825 5828 5831 5832 5833 5836 5837 5839 5840 5841 5842 5843 5845 5846 5847 5849 5850 5851 5852 5853 5854 5855 5855 5856 5857 5857 5858 5858 5859 5859 5860 5861 5861 5861 5861 5862 5862 5862 5863 5863 5863 5862 5862 5861 5861 5860 5860 5859 5858 5856 5855 5854 5854 5853 5852
5742 5746 5747 5751 5757 5761 5763 5763 5765 5767 5770 5773 5775 5776 5778 5779 5781 5783 5785 5789 5789 5791 5795 5799 5801 5800 5800 5809 5815 5814 5819 5824 5825 5826 5828 5830 5832 5834 5836 5837 5838 5839 5840 5841 5842 5844 5845 5847 5848 5849 5850 5851 5851 5852 5853 5854 5854 5855 5855 5856 5856 5857 5857 5857 5858 5858 5859 5859 5859 5859 5859 5859 5858 5858 5858 5857 5857 5856 5855 5854 5852 5851 5851 5850 5849 5848
5738 5740 5743 5749 5754 5756 5757 5759 5761 5763 5765 5768 5770 5772 5774 5775 5777 5779 5781 5784 5784 5787 5792 5795 5797 5797 5795 5804 5813 5813 5816 5820 5821 5823 5825 5826 5828 5830 5832 5834 5835 5836 5837 5838 5839 5840 5842 5843 5844 5845 5846 5847 5848 5849 5850 5850 5851 5852 5852 5853 5853 5854 5854 5854 5855 5855 5855 5855 5856 5856 5855 5855 5855 5855 5854 5854 5853 5852 5851 5850 5849 5848 5847 5846 5845 5844
5735 5737 5741 5746 5748 5750 5752 5754 5756 5758 5761 5763 5765 5767 5769 5769 5771 5774 5776 5778 5780 5784 5789 5792 5793 5792 5791 5800 5809 5811 5814 5816 5817 5819 5821 5823 5825 5827 5829 5830 5832 5833 5834 5835 5836 5837 5839 5840 5841 5842 5843 5844 5845 5846 5846 5847 5848 5848 5849 5849 5850 5851 5851 5851 5851 5851 5852 5852 5852 5852 5852 5852 5851 5851 5851 5850 5849 5848 5847 5846 5845 5844 5843 5841 5841 5840
5729 5732 5736 5740 5743 5745 5747 5749 5751 5753 5755 5757 5759 5761 5763 5763 5765 5768 5770 5774 5777 5781 5785 5789 5789 5788 5790 5797 5805 5809 5811 5812 5813 5816 5819 5821 5822 5823 5825 5827 5828 5829 5830 5832 5833 5834 5836 5837 5838 5839 5840 5840 5841 5842 5842 5843 5844 5845 5845 5846 5846 5847 5847 5847 5847 5848 5848 5848 5848 5848 5848 5848 5847 5847 5847 5846 5845 5844 5842 5842 5841 5840 5838 5837 5836 5835
5725 5728 5733 5736 5739 5741 5742 5745 5748 5750 5753 5754 5756 5758 5759 5760 5762 5765 5768 5772 5776 5780 5783 5785 5785 5785 5788 5795 5802 5806 5808 5809 5811 5814 5816 5818 5819 5820 5822 5823 5824 5825 5827 5828 5830 5831 5832 5833 5834 5835 5836 5837 5837 5838 5839 5839 5840 5841 5841 5842 5843 5843 5843 5843 5843 5843 5843 5843 5843 5843 5843 5843 5843 5843 5842 5841 5840 5839 5838 5837 5836 5835 5833 5832 5831 5830
5724 5728 5732 5733 5735 5737 5738 5740 5743 5745 5748 5750 5753 5755 5757 5759 5762 5766 5769 5772 5776 5778 5779 5781 5782 5784 5787 5792 5797 5801 5804 5806 5808 5810 5812 5814 5815 5817 5818 5819 5821 5822 5823 5825 5826 5827 5828 5829 5830 5831 5832 5833 5834 5834 5835 5836 5836 5837 5837 5838 5838 5839 5839 5839 5839 5839 5839 5839 5839 5839 5839 5839 5838 5838 5837 5836 5835 5834 5833 5832 5831 5830 5829 5828 5827 5825
5720 5724 5727 5729 5731 5733 5735 5737 5738 5740 5742 5745 5747 5749 5753 5757 5760 5763 5766 5769 5771 5772 5773 5776 5778 5781 5785 5787 5792 5797 5800 5802 5804 5806 5809 5810 5812 5814 5815 5816 5817 5818 5820 5821 5822 5823 5824 5825 5826 5827 5828 5829 5830 5830 5831 5832 5832 5833 5833 5834 5834 5834 5834 5834 5834 5834 5834 5834 5835 5834 5834 5834 5833 5833 5832 5831 5830 5829 5828 5827 5826 5824 5823 5823 5822 5820
5717 5719 5721 5723 5725 5729 5732 5734 5735 5737 5740 5742 5744 5747 5751 5755 5757 5759 5761 5763 5765 5766 5768 5771 5774 5778 5780 5783 5789 5793 5796 5798 5800 5802 5805 5807 5809 5810 5811 5812 5814 5815 5816 5817 5818 5820 5821 5822 5823 5823 5824 5825 5826 5826 5827 5827 5828 5828 5829 5829 5829 5829 5830 5829 5829 5830 5830 5830 5830 5830 5829 5829 5828 5827 5826 5826 5825 5824 5823 5821 5820 5819 5818 5817 5816 5815
5713 5716 5718 5720 5721 5725 5728 5729 5731 5733 5736 5739 5742 5746 5749 5751 5753 5754 5756 5757 5760 5761 5763 5766 5770 5773 5776 5780 5786 5789 5792 5795 5797 5799 5801 5803 5805 5806 5807 5809 5810 5811 5812 5813 5815 5816 5817 5818 5819 5820 5820 5821 5822 5822 5823 5823 5823 5824 5824 5824 5824 5825 5825 5825 5825 5825 5825 5825 5825 5824 5824 5823 5822 5822 5821 5820 5819 5819 5818 5816 5815 5814 5812 5811 5810 5809
5709 5711 5714 5717 5719 5722 5724 5725 5727 5730 5732 5735 5738 5742 5744 5747 5749 5751 5753 5755 5757 5759 5761 5763 5765 5768 5773 5779 5783 5785 5788 5791 5793 5795 5797 5798 5800 5802 5803 5805 5806 5807 5809 5810 5811 5812 5813 5814 5815 5816 5816 5817 5818 5818 5818 5819 5819 5819 5819 5819 5820 5820 5820 5820 5820 5820 5820 5820 5819 5819 5818 5817 5817 5816 5815 5814 5814 5813 5812 5811 5810 5808 5807 5805 5804 5803
5704 5706 5709 5713 5715 5717 5719 5722 5725 5728 5730 5732 5734 5737 5740 5742 5745 5748 5750 5752 5754 5756 5758 5759 5760 5764 5772 5778 5781 5782 5785 5787 5789 5791 5792 5794 5795 5797 5799 5800 5802 5803 5804 5806 5807 5808 5808 5809 5810 5811 5812 5812 5813 5813 5813 5814 5814 5814 5815 5815 5815 5816 5815 5815 5815 5815 5814 5814 5814 5813 5813 5812 5811 5811 5809 5808 5807 5807 5806 5805 5804 5802 5801 5800 5799 5797
5699 5702 5705 5708 5711 5714 5716 5719 5723 5725 5728 5731 5734 5737 5740 5742 5744 5746 5748 5749 5751 5753 5754 5756 5755 5760 5770 5776 5777 5780 5781 5784 5786 5787 5789 5790 5791 5792 5794 5796 5797 5798 5800 5801 5802 5803 5804 5805 5806 5806 5807 5807 5807 5807 5808 5808 5809 5809 5810 5810 5810 5811 5810 5810 5810 5809 5809 5808 5808 5808 5807 5806 5806 5805 5804 5803 5802 5801 5800 5799 5798 5796 5795 5794 5793 5791
5694 5697 5700 5704 5708 5711 5714 5717 5720 5723 5726 5728 5731 5734 5737 5739 5741 5742 5744 5746 5749 5751 5753 5755 5752 5755 5766 5772 5773 5775 5777 5779 5782 5783 5784 5786 5787 5788 5789 5790 5792 5793 5795 5796 5797 5798 5799 5799 5800 5801 5801 5802 5802 5802 5802 5803 5804 5804 5804 5805 5805 5805 5805 5804 5804 5804 5803 5803 5802 5802 5801 5801 5800 5799 5798 5797 5796 5795 5794 5793 5792 5790 5789 5788 5786 5785
5690 5693 5695 5700 5704 5707 5710 5714 5717 5719 5722 5724 5727 5729 5731 5733 5735 5738 5740 5743 5747 5748 5750 5751 5747 5747 5758 5766 5768 5769 5772 5774 5777 5779 5779 5781 5782 5784 5784 5785 5787 5788 5789 5790 5791 5792 5793 5793 5794 5794 5795 5796 5796 5797 5797 5798 5798 5799 5799 5799 5799 5799 5799 5799 5798 5798 5797 5797 5796 5796 5795 5794 5794 5793 5791 5790 5789 5788 5787 5786 5785 5784 5782 5781 5780 5779
5686 5687 5690 5694 5697 5700 5703 5707 5710 5713 5716 5717 5719 5722 5724 5727 5730 5733 5736 5739 5741 5743 5745 5745 5742 5743 5753 5762 5763 5765 5768 5770 5772 5773 5774 5776 5777 5778 5779 5780 5781 5782 5783 5784 5785 5786 5787 5787 5788 5788 5789 5789 5790 5791 5791 5792 5792 5793 5793 5793 5793 5793 5793 5792 5792 5792 5792 5791 5790 5789 5789 5788 5787 5786 5785 5784 5783 5782 5781 5780 5779 5778 5777 5775 5774 5773
5683 5685 5687 5689 5691 5693 5696 5700 5704 5707 5708 5709 5712 5716 5720 5724 5727 5731 5735 5736 5738 5740 5742 5742 5741 5745 5753 5757 5758 5760 5763 5764 5766 5768 5769 5770 5770 5770 5771 5773 5774 5775 5777 5778 5779 5779 5780 5781 5782 5782 5783 5783 5784 5785 5785 5785 5786 5786 5786 5786 5786 5786 5786 5786 5786 5786 5785 5785 5784 5783 5782 5781 5780 5780 5779 5778 5777 5776 5775 5774 5773 5772 5771 5770 5769 5767
5680 5682 5685 5688 5692 5695 5699 5703 5707 5708 5709 5711 5715 5718 5721 5724 5727 5730 5732 5734 5737 5739 5740 5739 5740 5743 5748 5751 5752 5756 5758 5759 5760 5762 5762 5762 5762 5762 5764 5765 5767 5769 5770 5772 5773 5773 5774 5775 5776 5777 5777 5778 5778 5779 5779 5779 5779 5780 5780 5780 5780 5780 5780 5780 5779 5779 5778 5778 5777 5776 5776 5775 5774 5774 5773 5772 5771 5770 5769 5768 5767 5766 5765 5764 5763 5762
5676 5678 5682 5687 5690 5695 5699 5702 5705 5707 5710 5713 5716 5717 5719 5722 5724 5726 5728 5731 5735 5735 5735 5737 5738 5739 5743 5747 5749 5752 5754 5754 5754 5755 5755 5754 5755 5756 5758 5760 5762 5763 5764 5765 5766 5766 5767 5768 5769 5770 5771 5771 5772 5772 5773 5773 5774 5774 5774 5774 5774 5774 5774 5773 5773 5773 5772 5771 5771 5770 5769 5769 5768 5768 5767 5767 5766 5765 5764 5763 5762 5761 5759 5758 5757 5756
5672 5675 5680 5683 5686 5689 5693 5695 5699 5702 5705 5707 5709 5711 5715 5717 5718 5721 5724 5727 5728 5728 5730 5734 5736 5737 5739 5743 5745 5746 5747 5748 5748 5748 5748 5749 5751 5752 5754 5755 5756 5756 5757 5758 5759 5760 5761 5762 5764 5764 5764 5765 5766 5766 5767 5768 5768 5768 5768 5768 5768 5768 5767 5767 5767 5766 5766 5765 5765 5764 5764 5763 5763 5762 5762 5761 5760 5759 5758 5757 5756 5755 5754 5752 5751 5749
5668 5671 5674 5678 5681 5685 5687 5690 5693 5696 5697 5699 5701 5705 5708 5710 5713 5716 5719 5721 5722 5722 5725 5728 5730 5732 5733 5737 5739 5740 5741 5743 5743 5743 5745 5746 5748 5749 5749 5749 5749 5749 5750 5752 5753 5754 5756 5757 5757 5758 5759 5759 5760 5761 5762 5762 5762 5762 5762 5762 5762 5762 5762 5762 5761 5761 5760 5760 5760 5759 5758 5758 5757 5757 5756 5755 5754 5753 5752 5751 5750 5749 5747 5746 5744 5743
5662 5665 5668 5672 5675 5678 5681 5684 5686 5689 5692 5693 5695 5698 5702 5705 5708 5709 5710 5713 5713 5715 5719 5721 5723 5726 5729 5732 5735 5736 5737 5739 5739 5740 5742 5743 5744 5743 5743 5742 5743 5744 5745 5746 5747 5748 5750 5750 5751 5752 5753 5754 5755 5756 5756 5756 5756 5756 5757 5757 5757 5757 5757 5756 5756 5755 5755 5754 5754 5753 5752 5752 5751 5750 5750 5749 5748 5747 5746 5745 5743 5742 5740 5739 5737 5735
5655 5657 5662 5666 5668 5672 5676 5678 5680 5683 5685 5686 5688 5693 5697 5699 5700 5702 5704 5706 5708 5712 5716 5717 5719 5724 5728 5731 5733 5733 5733 5734 5736 5737 5738 5737 5737 5736 5736 5736 5737 5739 5740 5741 5742 5743 5744 5745 5746 5747 5748 5749 5750 5750 5750 5750 5751 5751 5752 5752 5751 5751 5751 5750 5750 5749 5748 5748 5747 5747 5746 5745 5745 5744 5743 5742 5741 5740 5739 5737 5736 5735 5733 5731 5729 5728
5651 5653 5658 5662 5665 5669 5672 5672 5674 5677 5676 5677 5683 5690 5693 5694 5696 5699 5700 5703 5707 5710 5712 5714 5717 5722 5725 5727 5728 5728 5727 5728 5730 5731 5730 5729 5728 5729 5729 5731 5732 5734 5736 5736 5737 5737 5738 5740 5742 5743 5743 5744 5744 5744 5745 5745 5745 5746 5746 5746 5745 5745 5744 5744 5743 5743 5743 5742 5741 5741 5740 5739 5738 5737 5736 5735 5734 5733 5732 5730 5729 5727 5726 5724 5722 5721
5649 5652 5655 5659 5662 5665 5667 5668 5669 5668 5667 5674 5684 5689 5690 5691 5694 5696 5698 5702 5705 5707 5709 5711 5714 5716 5716 5718 5720 5721 5722 5722 5723 5724 5723 5722 5722 5723 5724 5726 5728 5730 5730 5731 5732 5733 5734 5736 5737 5737 5738 5738 5738 5738 5738 5739 5739 5740 5739 5739 5738 5738 5738 5738 5737 5737 5737 5736 5735 5735 5734 5733 5732 5731 5730 5728 5727 5726 5725 5723 5722 5720 5718 5717 5714 5713
5645 5648 5651 5654 5656 5659 5661 5662 5660 5659 5666 5676 5682 5684 5685 5687 5690 5692 5694 5698 5699 5700 5702 5704 5706 5708 5709 5710 5713 5716 5717 5716 5716 5717 5718 5717 5717 5718 5720 5722 5723 5724 5724 5726 5727 5728 5729 5730 5730 5731 5731 5731 5731 5731 5731 5732 5732 5732 5732 5732 5732 5732 5732 5731 5731 5730 5730 5729 5728 5728 5727 5726 5725 5724 5723 5721 5720 5719 5717 5716 5714 5713 5711 5709 5707 5705
5636 5640 5643 5646 5648 5650 5652 5652 5652 5658 5667 5673 5675 5677 5680 5682 5684 5686 5686 5689 5692 5694 5696 5698 5702 5704 5705 5706 5708 5710 5710 5710 5709 5709 5711 5712 5712 5714 5715 5717 5717 5717 5719 5720 5721 5721 5722 5722 5723 5724 5724 5725 5725 5725 5725 5725 5725 5725 5726 5726 5726 5725 5725 5724 5724 5723 5723 5722 5721 5720 5720 5719 5718 5717 5715 5714 5712 5711 5710 5708 5707 5705 5703 5701 5699 5697
5629 5632 5635 5637 5639 5642 5644 5646 5651 5657 5662 5664 5668 5672 5675 5677 5680 5681 5681 5684 5688 5691 5692 5695 5699 5700 5700 5701 5701 5701 5702 5702 5701 5704 5707 5706 5707 5710 5711 5711 5711 5712 5712 5712 5712 5713 5713 5714 5716 5717 5717 5718 5718 5718 5718 5718 5718 5718 5718 5718 5718 5718 5718 5717 5717 5716 5716 5715 5714 5713 5712 5711 5710 5709 5707 5706 5704 5703 5701 5700 5698 5697 5695 5693 5691 5689
5625 5627 5631 5633 5635 5638 5641 5644 5648 5651 5654 5659 5665 5667 5669 5672 5676 5676 5674 5678 5683 5686 5687 5689 5692 5693 5693 5693 5693 5694 5695 5694 5697 5703 5704 5700 5700 5703 5705 5704 5705 5705 5705 5705 5705 5706 5706 5707 5708 5709 5710 5711 5711 5711 5711 5711 5711 5711 5711 5711 5711 5711 5710 5710 5709 5709 5708 5707 5706 5705 5704 5703 5702 5701 5699 5698 5696 5694 5693 5691 5690 5688 5686 5684 5682 5680
5621 5624 5627 5628 5630 5634 5637 5639 5641 5645 5650 5657 5662 5663 5664 5667 5671 5671 5668 5671 5678 5681 5681 5682 5685 5686 5687 5687 5688 5688 5688 5689 5695 5701 5698 5692 5692 5695 5696 5697 5698 5698 5699 5700 5700 5700 5701 5701 5702 5702 5702 5703 5703 5704 5704 5704 5704 5704 5704 5704 5703 5703 5703 5702 5701 5701 5700 5699 5698 5697 5696 5695 5694 5692 5691 5689 5688 5686 5684 5683 5681 5679 5678 5676 5674 5671
5616 5618 5620 5622 5625 5629 5632 5633 5636 5641 5647 5652 5655 5657 5658 5661 5664 5663 5661 5666 5672 5675 5677 5678 5679 5680 5681 5682 5682 5683 5683 5686 5691 5692 5688 5684 5685 5688 5689 5691 5692 5693 5694 5695 5695 5695 5695 5695 5696 5696 5696 5696 5696 5696 5696 5696 5696 5696 5696 5696 5696 5695 5695 5694 5693 5693 5692 5691 5690 5689 5688 5687 5685 5684 5683 5681 5679 5678 5676 5674 5673 5671 5669 5667 5665 5663
5612 5614 5616 5619 5623 5625 5627 5629 5633 5638 5643 5647 5648 5649 5652 5654 5654 5652 5657 5663 5666 5669 5673 5673 5672 5674 5675 5674 5675 5677 5678 5680 5683 5682 5679 5679 5680 5682 5683 5685 5686 5687 5688 5688 5688 5689 5689 5689 5690 5690 5689 5689 5689 5689 5689 5689 5689 5689 5688 5688 5688 5687 5687 5686 5686 5685 5684 5683 5682 5681 5680 5679 5677 5676 5674 5673 5671 5670 5668 5666 5664 5663 5661 5659 5657 5655
5607 5610 5612 5615 5618 5620 5623 5626 5629 5633 5639 5642 5641 5640 5642 5644 5645 5649 5658 5661 5660 5663 5667 5666 5665 5667 5667 5667 5668 5670 5672 5673 5674 5675 5674 5674 5675 5677 5677 5678 5680 5681 5681 5681 5682 5682 5682 5683 5683 5683 5682 5682 5682 5682 5682 5682 5681 5681 5681 5680 5680 5679 5679 5679 5678 5677 5676 5675 5674 5673 5672 5671 5669 5668 5666 5665 5663 5661 5660 5658 5656 5654 5652 5650 5647 5645
5604 5605 5607 5611 5614 5615 5617 5619 5622 5627 5633 5635 5633 5632 5634 5640 5646 5653 5656 5655 5654 5656 5657 5656 5657 5657 5659 5661 5662 5662 5664 5666 5667 5669 5670 5669 5671 5672 5672 5672 5673 5674 5674 5675 5674 5675 5675 5675 5675 5675 5675 5675 5675 5675 5675 5674 5674 5673 5673 5672 5672 5672 5671 5671 5670 5669 5669 5668 5667 5665 5664 5663 5661 5660 5658 5656 5655 5653 5651 5649 5647 5645 5643 5641 5638 5636
5597 5599 5602 5606 5607 5607 5608 5612 5618 5625 5630 5631 5631 5631 5633 5639 5643 5646 5646 5645 5647 5648 5647 5648 5648 5648 5650 5654 5655 5656 5658 5660 5661 5663 5664 5665 5665 5666 5665 5666 5666 5667 5667 5668 5668 5668 5668 5668 5668 5668 5668 5668 5668 5668 5667 5667 5666 5666 5665 5665 5664 5664 5663 5663 5662 5661 5660 5659 5658 5657 5656 5655 5653 5651 5650 5648 5646 5644 5642 5640 5639 5636 5634 5632 5630 5628
5591 5596 5599 5601 5601 5602 5605 5612 5618 5622 5622 5623 5624 5625 5627 5630 5631 5633 5635 5638 5638 5639 5640 5641 5640 5640 5643 5647 5649 5651 5653 5654 5656 5657 5657 5658 5659 5659 5659 5659 5659 5660 5660 5661 5661 5661 5661 5661 5661 5661 5661 5661 5661 5660 5660 5659 5659 5658 5658 5657 5657 5657 5656 5655 5654 5653 5652 5651 5650 5648 5647 5646 5645 5643 5641 5640 5638 5636 5634 5632 5630 5628 5626 5624 5622 5620
5590 5593 5594 5596 5597 5598 5602 5607 5611 5613 5613 5613 5614 5615 5618 5620 5623 5625 5627 5628 5629 5631 5633 5634 5634 5636 5638 5640 5643 5646 5646 5647 5649 5649 5650 5651 5652 5652 5653 5653 5653 5653 5653 5653 5654 5654 5654 5654 5653 5653 5653 5653 5652 5652 5652 5651 5651 5651 5650 5650 5650 5649 5648 5647 5646 5645 5644 5643 5642 5640 5639 5638 5637 5635 5633 5632 5630 5628 5626 5624 5623 5621 5619 5617 5615 5613
5584 5586 5587 5588 5590 5591 5594 5600 5604 5605 5606 5607 5607 5608 5611 5613 5616 5618 5619 5620 5622 5624 5626 5628 5629 5630 5631 5632 5635 5637 5639 5640 5641 5642 5643 5645 5645 5645 5646 5646 5646 5646 5646 5646 5646 5646 5646 5646 5646 5645 5645 5645 5644 5644 5644 5643 5643 5643 5642 5642 5641 5640 5640 5639 5638 5637 5636 5635 5634 5633 5631 5630 5629 5627 5625 5624 5622 5620 5619 5617 5615 5613 5611 5610 5608 5605
5578 5580 5579 5581 5583 5585 5590 5596 5598 5598 5599 5600 5601 5601 5602 5604 5607 5610 5611 5613 5615 5617 5618 5620 5621 5622 5623 5625 5627 5629 5631 5633 5634 5635 5636 5637 5638 5639 5639 5639 5640 5639 5638 5638 5638 5638 5638 5638 5638 5638 5638 5637 5637 5637 5636 5636 5636 5635 5634 5633 5632 5632 5631 5630 5629 5629 5628 5627 5626 5625 5624 5622 5621 5619 5618 5616 5614 5612 5611 5609 5607 5605 5604 5602 5600 5597
5570 5570 5572 5575 5577 5579 5583 5588 5589 5589 5590 5592 5594 5594 5595 5597 5600 5602 5603 5605 5607 5609 5610 5611 5612 5614 5615 5616 5618 5621 5623 5624 5626 5628 5628 5629 5630 5631 5631 5632 5633 5632 5632 5631 5630 5630 5630 5630 5630 5630 5630 5630 5630 5630 5629 5628 5627 5627 5626 5625 5624 5623 5623 5622 5621 5620 5620 5619 5618 5617 5615 5614 5612 5611 5609 5608 5606 5604 5602 5601 5599 5597 5595 5593 5591 5589
5560 5561 5566 5568 5567 5569 5576 5581 5583 5583 5584 5588 5590 5590 5590 5591 5592 5594 5595 5596 5597 5599 5601 5602 5604 5606 5607 5608 5610 5612 5614 5615 5617 5619 5620 5621 5622 5622 5623 5624 5624 5624 5625 5624 5623 5623 5622 5622 5622 5622 5622 5622 5622 5622 5621 5620 5619 5618 5618 5617 5616 5616 5615 5614 5614 5613 5612 5611 5610 5608 5607 5606 5604 5602 5601 5599 5597 5596 5594 5592 5590 5588 5587 5585 5583 5580
5552 5555 5559 5560 5561 5567 5574 5577 5577 5577 5578 5581 5583 5582 5581 5583 5584 5585 5586 5587 5588 5590 5592 5594 5596 5598 5599 5601 5602 5604 5605 5607 5608 5610 5612 5612 5613 5613 5614 5615 5615 5616 5616 5615 5615 5615 5615 5614 5614 5614 5614 5614 5614 5613 5612 5611 5611 5610 5610 5609 5609 5608 5608 5607 5606 5605 5604 5603 5601 5600 5599 5597 5596 5594 5592 5590 5589 5587 5585 5584 5582 5580 5578 5576 5574 5571